Weather History for KGEZ - March, 2013

Change the Weather History Date:

Thursday, March 14, 2013

  Actual Average Record
Temperature  
Mean Temperature 34 °F 41 °F  
Max Temperature 46 °F 51 °F 80 °F (2012)
Min Temperature 22 °F 31 °F 19 °F (2005)
Degree Days  
Heating Degree Days 31 24  
Month to date heating degree days 394 372  
Since 1 July heating degree days 4196 4535  
Cooling Degree Days 0 0  
Month to date cooling degree days 0 0  
Year to date cooling degree days 0 0  
Moisture  
Dew Point 21 °F    
Average Humidity 58    
Maximum Humidity 82    
Minimum Humidity 33    
Precipitation  
Precipitation 0.00 in 0.11 in 0.49 in (2007)
Month to date precipitation 0.27 1.25  
Year to date precipitation 5.47 6.00  
Sea Level Pressure  
Sea Level Pressure 30.28 in    
Wind  
Wind Speed 8 mph (WSW)    
Max Wind Speed 17 mph    
Max Gust Speed 20 mph    
Visibility 10 miles    
Events      
T = Trace of Precipitation, MM = Missing Value Source: NWS Daily Summary

Daily Weather History Graph

Daily Weather History Graph

Search for Another Location

Airport or City:

Trip Planner

Search our weather history database for the weather conditions in past years. The results will help you decide how hot, cold, wet, or windy it might be!

Date:

Astronomy

Mar. 14, 2013 Rise Set
Actual Time 7:55 AM EDT 7:49 PM EDT
Civil Twilight 7:29 AM EDT 8:16 PM EDT
Nautical Twilight 6:57 AM EDT 8:47 PM EDT
Astronomical Twilight 6:26 AM EDT 9:19 PM EDT
Moon 9:10 AM EDT (3/14) 11:04 PM EDT (3/14)
Length of Visible Light 12h 47m
Length of Day
11h 53m
Waxing Crescent, 9% of the Moon is Illuminated
Mar 14
Waxing Crescent
Mar 19
First Quarter
Mar 27
Full
Apr 3
Last Quarter
Apr 10
New

Hourly Weather History & Observations

Time (EDT) Temp. Windchill Dew Point Humidity Pressure Visibility Wind Dir Wind Speed Gust Speed Precip Events Conditions
12:53 AM 27.0 °F 20.5 °F 19.0 °F 72% 30.34 in 10.0 mi West 5.8 mph - N/A   Clear
1:53 AM 26.1 °F 19.4 °F 18.0 °F 71% 30.33 in 10.0 mi West 5.8 mph - N/A   Clear
2:53 AM 25.0 °F 19.3 °F 19.0 °F 78% 30.34 in 10.0 mi WSW 4.6 mph - N/A   Clear
3:53 AM 26.1 °F 18.4 °F 19.0 °F 75% 30.35 in 10.0 mi WSW 6.9 mph - N/A   Clear
4:53 AM 24.1 °F 17.0 °F 18.0 °F 77% 30.34 in 10.0 mi West 5.8 mph - N/A   Clear
5:53 AM 24.1 °F 18.2 °F 18.0 °F 77% 30.33 in 10.0 mi WSW 4.6 mph - N/A   Clear
6:53 AM 24.1 °F 18.2 °F 18.0 °F 77% 30.33 in 10.0 mi WSW 4.6 mph - N/A   Clear
7:53 AM 23.0 °F 17.0 °F 18.0 °F 81% 30.34 in 10.0 mi SW 4.6 mph - N/A   Clear
8:53 AM 26.1 °F 19.4 °F 19.9 °F 78% 30.34 in 10.0 mi SW 5.8 mph - N/A   Clear
9:53 AM 30.0 °F 23.2 °F 21.9 °F 72% 30.35 in 10.0 mi WSW 6.9 mph - N/A   Clear
10:53 AM 33.1 °F 26.9 °F 21.0 °F 61% 30.35 in 10.0 mi Variable 6.9 mph - N/A   Clear
11:53 AM 36.0 °F 29.0 °F 19.0 °F 50% 30.34 in 10.0 mi West 9.2 mph - N/A   Clear
1:53 PM 39.0 °F 34.0 °F 17.1 °F 41% 30.30 in 10.0 mi WSW 6.9 mph - N/A   Partly Cloudy
2:53 PM 42.1 °F 36.6 °F 15.1 °F 34% 30.27 in 10.0 mi SW 9.2 mph - N/A   Partly Cloudy
3:53 PM 44.1 °F 39.5 °F 17.1 °F 34% 30.24 in 10.0 mi West 8.1 mph 17.3 mph N/A   Clear
4:53 PM 44.1 °F 38.6 °F 17.1 °F 34% 30.22 in 10.0 mi West 10.4 mph - N/A   Mostly Cloudy
5:53 PM 43.0 °F 37.7 °F 19.9 °F 40% 30.22 in 10.0 mi West 9.2 mph - N/A   Mostly Cloudy
6:53 PM 42.1 °F 37.1 °F 21.9 °F 45% 30.20 in 10.0 mi West 8.1 mph - N/A   Overcast
7:53 PM 41.0 °F 35.2 °F 25.0 °F 53% 30.20 in 10.0 mi West 9.2 mph - N/A   Overcast
8:53 PM 39.0 °F 29.9 °F 26.1 °F 60% 30.21 in 10.0 mi West 17.3 mph - N/A   Overcast
9:53 PM 36.0 °F 29.0 °F 30.0 °F 79% 30.22 in 10.0 mi WSW 9.2 mph - N/A   Overcast
10:53 PM 36.0 °F 29.6 °F 30.0 °F 79% 30.19 in 10.0 mi SW 8.1 mph - N/A   Overcast
11:53 PM 33.1 °F 27.7 °F 28.9 °F 85% 30.18 in 10.0 mi SW 5.8 mph - N/A   Partly Cloudy